Tabellarische Ansicht des 9.11.2007


Die einzelnen Werte des Tages

Uhrzeit Temperatur Luftdruck Luftfeuchte Wind Hi-Wind Taupunkt THW Index Wind Chill Heat Index Solar- strahlung Regen

00:00

7.6 C

999.8 hpa

90 %

14.5 km/h aus 112

29.0 km/h aus WNW

6.1 C

4.9 C

4.9 C

7.7 C

0 W/m

0.00 mm

00:05

7.5 C

999.8 hpa

90 %

9.7 km/h aus 111

22.5 km/h aus NW

6.0 C

5.8 C

5.7 C

7.6 C

0 W/m

0.20 mm

00:10

7.4 C

999.8 hpa

90 %

9.7 km/h aus 115

20.9 km/h aus WNW

5.9 C

5.7 C

5.7 C

7.5 C

0 W/m

0.00 mm

00:15

7.4 C

999.8 hpa

90 %

9.7 km/h aus 111

19.3 km/h aus WNW

5.9 C

5.7 C

5.6 C

7.4 C

0 W/m

0.00 mm

00:20

7.3 C

999.8 hpa

89 %

9.7 km/h aus 110

17.7 km/h aus NW

5.6 C

5.6 C

5.5 C

7.4 C

0 W/m

0.00 mm

00:25

7.3 C

999.8 hpa

90 %

9.7 km/h aus 107

16.1 km/h aus WNW

5.8 C

5.6 C

5.5 C

7.4 C

0 W/m

0.00 mm

00:30

7.3 C

999.9 hpa

90 %

9.7 km/h aus 111

17.7 km/h aus WSW

5.7 C

5.5 C

5.4 C

7.3 C

0 W/m

0.00 mm

00:35

7.2 C

999.9 hpa

90 %

11.3 km/h aus 114

22.5 km/h aus W

5.7 C

5.2 C

5.1 C

7.3 C

0 W/m

0.20 mm

00:40

7.2 C

999.9 hpa

90 %

11.3 km/h aus 109

20.9 km/h aus WSW

5.7 C

5.2 C

5.1 C

7.3 C

0 W/m

0.00 mm

00:45

7.2 C

999.7 hpa

89 %

9.7 km/h aus 116

20.9 km/h aus W

5.5 C

5.4 C

5.3 C

7.2 C

0 W/m

0.00 mm

00:50

7.1 C

999.7 hpa

89 %

8.0 km/h aus 113

19.3 km/h aus WNW

5.4 C

5.7 C

5.6 C

7.2 C

0 W/m

0.00 mm

00:55

7.1 C

999.7 hpa

90 %

8.0 km/h aus 109

17.7 km/h aus W

5.6 C

5.7 C

5.6 C

7.2 C

0 W/m

0.00 mm

01:00

7.1 C

999.8 hpa

90 %

8.0 km/h aus 112

11.3 km/h aus WSW

5.5 C

5.6 C

5.6 C

7.1 C

0 W/m

0.00 mm

01:05

7.1 C

999.8 hpa

90 %

9.7 km/h aus 116

16.1 km/h aus WSW

5.5 C

5.2 C

5.2 C

7.1 C

0 W/m

0.00 mm

01:10

7.1 C

999.8 hpa

90 %

8.0 km/h aus 112

17.7 km/h aus WSW

5.5 C

5.6 C

5.6 C

7.1 C

0 W/m

0.00 mm

01:15

7.0 C

999.9 hpa

90 %

9.7 km/h aus 115

22.5 km/h aus W

5.5 C

5.2 C

5.1 C

7.1 C

0 W/m

0.00 mm

01:20

7.0 C

999.9 hpa

90 %

9.7 km/h aus 113

27.4 km/h aus W

5.5 C

5.2 C

5.1 C

7.1 C

0 W/m

0.00 mm

01:25

6.9 C

999.9 hpa

90 %

11.3 km/h aus 115

22.5 km/h aus WNW

5.4 C

4.8 C

4.8 C

7.0 C

0 W/m

0.00 mm

01:30

6.9 C

999.9 hpa

89 %

11.3 km/h aus 109

17.7 km/h aus WNW

5.2 C

4.8 C

4.7 C

6.9 C

0 W/m

0.00 mm

01:35

6.9 C

999.9 hpa

89 %

16.1 km/h aus 114

25.7 km/h aus WNW

5.2 C

3.8 C

3.8 C

6.9 C

0 W/m

0.00 mm

01:40

6.9 C

999.9 hpa

90 %

14.5 km/h aus 112

24.1 km/h aus W

5.4 C

4.1 C

4.1 C

6.9 C

0 W/m

0.00 mm

01:45

6.9 C

1000.0 hpa

90 %

12.9 km/h aus 107

33.8 km/h aus W

5.4 C

4.4 C

4.4 C

6.9 C

0 W/m

0.00 mm

01:50

6.8 C

1000.0 hpa

89 %

17.7 km/h aus 114

29.0 km/h aus W

5.1 C

3.4 C

3.3 C

6.8 C

0 W/m

0.20 mm

01:55

6.7 C

1000.0 hpa

88 %

14.5 km/h aus 110

24.1 km/h aus W

4.8 C

3.8 C

3.8 C

6.7 C

0 W/m

0.00 mm

02:00

6.4 C

1000.0 hpa

88 %

11.3 km/h aus 111

20.9 km/h aus W

4.6 C

4.2 C

4.2 C

6.4 C

0 W/m

0.00 mm

02:05

6.3 C

1000.0 hpa

87 %

11.3 km/h aus 112

24.1 km/h aus WNW

4.3 C

4.1 C

4.1 C

6.3 C

0 W/m

0.00 mm

02:10

6.3 C

1000.0 hpa

87 %

11.3 km/h aus 111

19.3 km/h aus NW

4.3 C

4.0 C

4.0 C

6.3 C

0 W/m

0.00 mm

02:15

6.2 C

1000.1 hpa

87 %

8.0 km/h aus 111

16.1 km/h aus NW

4.2 C

4.4 C

4.5 C

6.1 C

0 W/m

0.00 mm

02:20

6.1 C

1000.1 hpa

87 %

12.9 km/h aus 112

20.9 km/h aus WNW

4.1 C

3.4 C

3.4 C

6.1 C

0 W/m

0.00 mm

02:25

6.1 C

1000.1 hpa

87 %

11.3 km/h aus 112

20.9 km/h aus WNW

4.1 C

3.7 C

3.7 C

6.0 C

0 W/m

0.00 mm

02:30

6.1 C

1000.0 hpa

88 %

8.0 km/h aus 112

16.1 km/h aus WNW

4.2 C

4.4 C

4.4 C

6.1 C

0 W/m

0.00 mm

02:35

6.1 C

1000.0 hpa

88 %

11.3 km/h aus 105

22.5 km/h aus WNW

4.2 C

3.7 C

3.7 C

6.1 C

0 W/m

0.00 mm

02:40

6.1 C

1000.0 hpa

88 %

9.7 km/h aus 115

16.1 km/h aus WNW

4.2 C

4.0 C

4.0 C

6.1 C

0 W/m

0.00 mm

02:45

6.1 C

1000.2 hpa

89 %

12.9 km/h aus 114

22.5 km/h aus WNW

4.4 C

3.4 C

3.4 C

6.1 C

0 W/m

0.00 mm

02:50

6.1 C

1000.2 hpa

89 %

14.5 km/h aus 110

27.4 km/h aus NW

4.4 C

3.1 C

3.1 C

6.1 C

0 W/m

0.00 mm

02:55

6.1 C

1000.2 hpa

88 %

14.5 km/h aus 108

29.0 km/h aus WNW

4.2 C

3.1 C

3.1 C

6.1 C

0 W/m

0.00 mm

03:00

6.1 C

1000.0 hpa

87 %

17.7 km/h aus 117

32.2 km/h aus WNW

4.1 C

2.5 C

2.6 C

6.0 C

0 W/m

0.00 mm

03:05

6.0 C

1000.0 hpa

86 %

19.3 km/h aus 112

29.0 km/h aus NW

3.8 C

2.2 C

2.3 C

5.9 C

0 W/m

0.00 mm

03:10

5.9 C

1000.0 hpa

85 %

16.1 km/h aus 114

32.2 km/h aus NW

3.6 C

2.6 C

2.7 C

5.9 C

0 W/m

0.00 mm

03:15

5.9 C

999.9 hpa

85 %

14.5 km/h aus 107

20.9 km/h aus NW

3.6 C

2.8 C

2.9 C

5.8 C

0 W/m

0.00 mm

03:20

5.8 C

999.9 hpa

85 %

16.1 km/h aus 110

25.7 km/h aus WNW

3.5 C

2.3 C

2.4 C

5.7 C

0 W/m

0.00 mm

03:25

5.7 C

999.9 hpa

85 %

14.5 km/h aus 109

27.4 km/h aus WNW

3.4 C

2.6 C

2.7 C

5.6 C

0 W/m

0.00 mm

03:30

5.7 C

1000.1 hpa

85 %

12.9 km/h aus 113

25.7 km/h aus WNW

3.4 C

2.9 C

3.0 C

5.6 C

0 W/m

0.00 mm

03:35

5.7 C

1000.1 hpa

84 %

11.3 km/h aus 111

25.7 km/h aus WNW

3.2 C

3.1 C

3.2 C

5.6 C

0 W/m

0.00 mm

03:40

5.6 C

1000.1 hpa

84 %

12.9 km/h aus 111

22.5 km/h aus WNW

3.1 C

2.7 C

2.8 C

5.5 C

0 W/m

0.00 mm

03:45

5.6 C

1000.1 hpa

84 %

14.5 km/h aus 111

25.7 km/h aus NW

3.1 C

2.4 C

2.5 C

5.4 C

0 W/m

0.00 mm

03:50

5.5 C

1000.1 hpa

84 %

12.9 km/h aus 115

25.7 km/h aus NW

3.0 C

2.6 C

2.7 C

5.4 C

0 W/m

0.00 mm

03:55

5.4 C

1000.1 hpa

83 %

12.9 km/h aus 110

20.9 km/h aus NW

2.8 C

2.6 C

2.7 C

5.3 C

0 W/m

0.00 mm

04:00

5.4 C

1000.4 hpa

83 %

17.7 km/h aus 113

25.7 km/h aus WNW

2.8 C

1.7 C

1.8 C

5.3 C

0 W/m

0.00 mm

04:05

5.5 C

1000.4 hpa

82 %

17.7 km/h aus 115

27.4 km/h aus WNW

2.7 C

1.7 C

1.9 C

5.3 C

0 W/m

0.00 mm

04:10

5.5 C

1000.4 hpa

82 %

12.9 km/h aus 111

22.5 km/h aus NW

2.7 C

2.6 C

2.7 C

5.3 C

0 W/m

0.00 mm

04:15

5.5 C

1000.6 hpa

83 %

11.3 km/h aus 109

27.4 km/h aus W

2.8 C

2.9 C

3.0 C

5.4 C

0 W/m

0.00 mm

04:20

5.4 C

1000.6 hpa

83 %

12.9 km/h aus 112

22.5 km/h aus WNW

2.8 C

2.6 C

2.7 C

5.3 C

0 W/m

0.00 mm

04:25

5.4 C

1000.6 hpa

83 %

16.1 km/h aus 110

25.7 km/h aus W

2.7 C

1.9 C

2.0 C

5.3 C

0 W/m

0.00 mm

04:30

5.3 C

1000.9 hpa

83 %

16.1 km/h aus 115

27.4 km/h aus W

2.7 C

1.8 C

1.9 C

5.2 C

0 W/m

0.00 mm

04:35

5.3 C

1000.9 hpa

83 %

16.1 km/h aus 114

24.1 km/h aus W

2.6 C

1.8 C

1.9 C

5.2 C

0 W/m

0.00 mm

04:40

5.2 C

1000.9 hpa

83 %

17.7 km/h aus 111

30.6 km/h aus WNW

2.5 C

1.4 C

1.5 C

5.1 C

0 W/m

0.00 mm

04:45

5.1 C

1000.9 hpa

83 %

16.1 km/h aus 112

29.0 km/h aus WSW

2.5 C

1.6 C

1.7 C

5.0 C

0 W/m

0.00 mm

04:50

5.1 C

1000.9 hpa

84 %

19.3 km/h aus 110

33.8 km/h aus W

2.6 C

1.1 C

1.2 C

4.9 C

0 W/m

0.00 mm

04:55

5.1 C

1000.9 hpa

84 %

17.7 km/h aus 114

29.0 km/h aus WNW

2.6 C

1.3 C

1.4 C

4.9 C

0 W/m

0.00 mm

05:00

5.0 C

1001.1 hpa

84 %

16.1 km/h aus 115

27.4 km/h aus WNW

2.5 C

1.4 C

1.6 C

4.9 C

0 W/m

0.00 mm

05:05

5.0 C

1001.1 hpa

85 %

19.3 km/h aus 113

32.2 km/h aus W

2.7 C

1.0 C

1.1 C

4.9 C

0 W/m

0.00 mm

05:10

4.9 C

1001.1 hpa

84 %

17.7 km/h aus 112

30.6 km/h aus W

2.5 C

1.2 C

1.3 C

4.8 C

0 W/m

0.00 mm

05:15

4.9 C

1001.3 hpa

85 %

17.7 km/h aus 109

29.0 km/h aus W

2.6 C

1.1 C

1.2 C

4.8 C

0 W/m

0.00 mm

05:20

4.8 C

1001.3 hpa

85 %

17.7 km/h aus 113

33.8 km/h aus WNW

2.5 C

0.9 C

1.1 C

4.7 C

0 W/m

0.00 mm

05:25

4.7 C

1001.3 hpa

85 %

14.5 km/h aus 110

25.7 km/h aus WNW

2.4 C

1.3 C

1.4 C

4.6 C

0 W/m

0.00 mm

05:30

4.6 C

1001.4 hpa

85 %

16.1 km/h aus 113

32.2 km/h aus W

2.3 C

0.9 C

1.0 C

4.4 C

0 W/m

0.00 mm

05:35

4.5 C

1001.4 hpa

85 %

16.1 km/h aus 114

25.7 km/h aus WNW

2.2 C

0.8 C

0.9 C

4.4 C

0 W/m

0.00 mm

05:40

4.6 C

1001.4 hpa

84 %

16.1 km/h aus 115

25.7 km/h aus W

2.1 C

0.9 C

1.0 C

4.4 C

0 W/m

0.00 mm

05:45

4.6 C

1001.5 hpa

84 %

16.1 km/h aus 109

32.2 km/h aus W

2.1 C

0.9 C

1.0 C

4.4 C

0 W/m

0.00 mm

05:50

4.5 C

1001.5 hpa

83 %

19.3 km/h aus 113

33.8 km/h aus WNW

1.9 C

0.4 C

0.5 C

4.4 C

0 W/m

0.00 mm

05:55

4.4 C

1001.5 hpa

83 %

14.5 km/h aus 111

32.2 km/h aus WNW

1.8 C

1.0 C

1.1 C

4.3 C

0 W/m

0.00 mm

06:00

4.3 C

1001.5 hpa

83 %

16.1 km/h aus 113

33.8 km/h aus W

1.7 C

0.7 C

0.8 C

4.2 C

0 W/m

0.00 mm

06:05

4.3 C

1001.5 hpa

83 %

17.7 km/h aus 110

30.6 km/h aus W

1.6 C

0.4 C

0.5 C

4.2 C

0 W/m

0.00 mm

06:10

4.2 C

1001.5 hpa

83 %

12.9 km/h aus 115

20.9 km/h aus W

1.6 C

1.1 C

1.2 C

4.1 C

0 W/m

0.00 mm

06:15

4.1 C

1001.9 hpa

83 %

16.1 km/h aus 111

27.4 km/h aus WNW

1.5 C

0.4 C

0.5 C

4.0 C

0 W/m

0.00 mm

06:20

4.1 C

1001.9 hpa

83 %

20.9 km/h aus 115

32.2 km/h aus WNW

1.4 C

-0.3 C

-0.2 C

3.9 C

0 W/m

0.00 mm

06:25

3.9 C

1001.9 hpa

83 %

14.5 km/h aus 110

24.1 km/h aus SW

1.3 C

0.4 C

0.6 C

3.8 C

0 W/m

0.00 mm

06:30

3.9 C

1001.9 hpa

83 %

19.3 km/h aus 109

29.0 km/h aus W

1.3 C

-0.3 C

-0.2 C

3.8 C

0 W/m

0.00 mm

06:35

3.8 C

1001.9 hpa

83 %

16.1 km/h aus 111

37.0 km/h aus W

1.2 C

0.1 C

0.2 C

3.7 C

0 W/m

0.00 mm

06:40

3.8 C

1001.9 hpa

84 %

19.3 km/h aus 112

30.6 km/h aus WSW

1.3 C

-0.5 C

-0.4 C

3.7 C

0 W/m

0.00 mm

06:45

3.8 C

1002.1 hpa

84 %

14.5 km/h aus 115

25.7 km/h aus W

1.3 C

0.2 C

0.3 C

3.7 C

0 W/m

0.00 mm

06:50

3.8 C

1002.1 hpa

84 %

16.1 km/h aus 107

33.8 km/h aus W

1.3 C

0.0 C

0.1 C

3.7 C

0 W/m

0.00 mm

06:55

3.8 C

1002.1 hpa

84 %

16.1 km/h aus 115

27.4 km/h aus W

1.4 C

0.1 C

0.2 C

3.7 C

0 W/m

0.00 mm

07:00

3.8 C

1002.3 hpa

84 %

16.1 km/h aus 114

27.4 km/h aus W

1.4 C

0.1 C

0.2 C

3.7 C

0 W/m

0.00 mm

07:05

3.9 C

1002.3 hpa

84 %

16.1 km/h aus 114

27.4 km/h aus WSW

1.4 C

0.1 C

0.2 C

3.8 C

0 W/m

0.00 mm

07:10

3.9 C

1002.3 hpa

84 %

19.3 km/h aus 110

32.2 km/h aus WSW

1.4 C

-0.3 C

-0.2 C

3.8 C

0 W/m

0.00 mm

07:15

3.9 C

1002.4 hpa

83 %

17.7 km/h aus 112

33.8 km/h aus WNW

1.3 C

-0.1 C

0.1 C

3.8 C

0 W/m

0.00 mm

07:20

4.0 C

1002.4 hpa

83 %

19.3 km/h aus 114

35.4 km/h aus W

1.4 C

-0.2 C

-0.1 C

3.9 C

0 W/m

0.00 mm

07:25

4.0 C

1002.4 hpa

83 %

16.1 km/h aus 113

27.4 km/h aus W

1.4 C

0.3 C

0.4 C

3.9 C

0 W/m

0.00 mm

07:30

4.0 C

1002.5 hpa

83 %

17.7 km/h aus 112

30.6 km/h aus W

1.4 C

0.0 C

0.1 C

3.9 C

0 W/m

0.00 mm

07:35

4.0 C

1002.5 hpa

83 %

19.3 km/h aus 113

37.0 km/h aus W

1.4 C

-0.2 C

-0.1 C

3.9 C

0 W/m

0.00 mm

07:40

3.9 C

1002.5 hpa

83 %

17.7 km/h aus 111

29.0 km/h aus W

1.3 C

-0.1 C

0.1 C

3.8 C

0 W/m

0.00 mm

07:45

3.9 C

1002.5 hpa

83 %

20.9 km/h aus 109

33.8 km/h aus W

1.3 C

-0.6 C

-0.4 C

3.8 C

0 W/m

0.00 mm

07:50

3.8 C

1002.5 hpa

83 %

17.7 km/h aus 107

30.6 km/h aus W

1.2 C

-0.2 C

-0.1 C

3.7 C

0 W/m

0.00 mm

07:55

3.7 C

1002.5 hpa

84 %

19.3 km/h aus 108

30.6 km/h aus WNW

1.3 C

-0.6 C

-0.4 C

3.6 C

0 W/m

0.00 mm

08:00

3.6 C

1003.0 hpa

84 %

16.1 km/h aus 108

25.7 km/h aus W

1.2 C

-0.2 C

-0.1 C

3.5 C

0 W/m

0.00 mm

08:05

3.4 C

1003.0 hpa

85 %

19.3 km/h aus 109

29.0 km/h aus W

1.2 C

-0.9 C

-0.8 C

3.3 C

0 W/m

0.00 mm

08:10

3.3 C

1003.0 hpa

85 %

14.5 km/h aus 110

24.1 km/h aus WSW

1.1 C

-0.3 C

-0.2 C

3.2 C

0 W/m

0.00 mm

08:15

3.3 C

1003.1 hpa

85 %

16.1 km/h aus 113

43.5 km/h aus WSW

1.1 C

-0.6 C

-0.4 C

3.2 C

0 W/m

0.00 mm

08:20

3.3 C

1003.1 hpa

85 %

16.1 km/h aus 113

30.6 km/h aus WNW

1.0 C

-0.7 C

-0.6 C

3.2 C

0 W/m

0.00 mm

08:25

3.4 C

1003.1 hpa

85 %

19.3 km/h aus 112

30.6 km/h aus WSW

1.1 C

-0.9 C

-0.8 C

3.3 C

0 W/m

0.00 mm

08:30

3.5 C

1003.1 hpa

84 %

17.7 km/h aus 115

35.4 km/h aus W

1.0 C

-0.6 C

-0.5 C

3.4 C

0 W/m

0.00 mm

08:35

3.6 C

1003.1 hpa

84 %

19.3 km/h aus 111

29.0 km/h aus WSW

1.1 C

-0.8 C

-0.7 C

3.4 C

0 W/m

0.00 mm

08:40

3.7 C

1003.1 hpa

84 %

16.1 km/h aus 114

32.2 km/h aus WSW

1.2 C

-0.2 C

-0.1 C

3.6 C

0 W/m

0.00 mm

08:45

3.7 C

1003.5 hpa

84 %

17.7 km/h aus 111

33.8 km/h aus WSW

1.3 C

-0.3 C

-0.2 C

3.6 C

0 W/m

0.00 mm

08:50

3.8 C

1003.5 hpa

83 %

22.5 km/h aus 112

46.7 km/h aus W

1.2 C

-0.9 C

-0.8 C

3.7 C

0 W/m

0.00 mm

08:55

3.8 C

1003.5 hpa

83 %

16.1 km/h aus 115

29.0 km/h aus WNW

1.2 C

0.1 C

0.2 C

3.7 C

0 W/m

0.00 mm

09:00

3.9 C

1003.7 hpa

83 %

20.9 km/h aus 107

33.8 km/h aus W

1.3 C

-0.5 C

-0.4 C

3.8 C

0 W/m

0.00 mm

09:05

3.9 C

1003.7 hpa

83 %

24.1 km/h aus 116

43.5 km/h aus WNW

1.3 C

-0.8 C

-0.7 C

3.8 C

0 W/m

0.00 mm

09:10

4.0 C

1003.7 hpa

83 %

17.7 km/h aus 113

29.0 km/h aus W

1.4 C

0.0 C

0.1 C

3.9 C

0 W/m

0.00 mm

09:15

4.0 C

1004.0 hpa

84 %

22.5 km/h aus 112

33.8 km/h aus W

1.5 C

-0.6 C

-0.5 C

3.9 C

0 W/m

0.00 mm

09:20

3.9 C

1004.0 hpa

84 %

20.9 km/h aus 109

37.0 km/h aus W

1.5 C

-0.5 C

-0.4 C

3.8 C

0 W/m

0.00 mm

09:25

3.8 C

1004.0 hpa

85 %

22.5 km/h aus 113

35.4 km/h aus W

1.5 C

-0.8 C

-0.7 C

3.7 C

0 W/m

0.00 mm

09:30

3.8 C

1004.1 hpa

85 %

20.9 km/h aus 109

33.8 km/h aus W

1.5 C

-0.6 C

-0.5 C

3.7 C

0 W/m

0.20 mm

09:35

3.8 C

1004.1 hpa

86 %

20.9 km/h aus 110

37.0 km/h aus W

1.7 C

-0.6 C

-0.5 C

3.7 C

0 W/m

0.00 mm

09:40

3.8 C

1004.1 hpa

86 %

20.9 km/h aus 112

32.2 km/h aus W

1.7 C

-0.6 C

-0.5 C

3.7 C

0 W/m

0.00 mm

09:45

3.8 C

1004.3 hpa

86 %

20.9 km/h aus 114

37.0 km/h aus W

1.7 C

-0.7 C

-0.6 C

3.7 C

0 W/m

0.00 mm

09:50

3.9 C

1004.3 hpa

86 %

19.3 km/h aus 110

32.2 km/h aus W

1.8 C

-0.3 C

-0.2 C

3.8 C

0 W/m

0.00 mm

09:55

3.9 C

1004.3 hpa

86 %

16.1 km/h aus 113

24.1 km/h aus W

1.8 C

0.2 C

0.3 C

3.8 C

0 W/m

0.00 mm

10:00

3.9 C

1004.2 hpa

85 %

17.7 km/h aus 108

33.8 km/h aus W

1.7 C

-0.1 C

0.1 C

3.8 C

0 W/m

0.00 mm

10:05

4.1 C

1004.2 hpa

85 %

14.5 km/h aus 110

27.4 km/h aus WSW

1.8 C

0.7 C

0.8 C

4.0 C

0 W/m

0.00 mm

10:10

4.2 C

1004.2 hpa

84 %

16.1 km/h aus 112

29.0 km/h aus W

1.7 C

0.4 C

0.6 C

4.1 C

0 W/m

0.00 mm

10:15

4.2 C

1004.6 hpa

85 %

19.3 km/h aus 110

32.2 km/h aus W

1.9 C

0.0 C

0.1 C

4.1 C

0 W/m

0.00 mm

10:20

4.2 C

1004.6 hpa

85 %

20.9 km/h aus 112

35.4 km/h aus WSW

1.9 C

-0.2 C

-0.1 C

4.1 C

0 W/m

0.00 mm

10:25

4.2 C

1004.6 hpa

85 %

19.3 km/h aus 113

33.8 km/h aus W

1.9 C

0.0 C

0.1 C

4.1 C

0 W/m

0.00 mm

10:30

4.3 C

1004.7 hpa

85 %

16.1 km/h aus 111

27.4 km/h aus W

2.0 C

0.7 C

0.8 C

4.2 C

0 W/m

0.00 mm

10:35

4.6 C

1004.7 hpa

84 %

19.3 km/h aus 116

30.6 km/h aus W

2.1 C

0.4 C

0.6 C

4.4 C

0 W/m

0.00 mm

10:40

4.8 C

1004.7 hpa

83 %

20.9 km/h aus 108

35.4 km/h aus W

2.1 C

0.6 C

0.7 C

4.7 C

0 W/m

0.00 mm

10:45

4.8 C

1005.0 hpa

84 %

24.1 km/h aus 114

40.2 km/h aus WNW

2.3 C

0.2 C

0.3 C

4.7 C

0 W/m

0.00 mm

10:50

4.7 C

1005.0 hpa

85 %

24.1 km/h aus 105

41.8 km/h aus WNW

2.4 C

0.1 C

0.2 C

4.6 C

0 W/m

0.00 mm

10:55

4.6 C

1005.0 hpa

86 %

19.3 km/h aus 111

33.8 km/h aus WSW

2.5 C

0.6 C

0.7 C

4.5 C

0 W/m

0.00 mm

11:00

4.7 C

1004.8 hpa

85 %

24.1 km/h aus 109

43.5 km/h aus WSW

2.4 C

0.1 C

0.2 C

4.6 C

0 W/m

0.00 mm

11:05

4.7 C

1004.8 hpa

85 %

17.7 km/h aus 110

33.8 km/h aus WSW

2.4 C

0.9 C

1.0 C

4.6 C

0 W/m

0.00 mm

11:10

4.8 C

1004.8 hpa

85 %

17.7 km/h aus 108

29.0 km/h aus W

2.5 C

0.9 C

1.1 C

4.7 C

0 W/m

0.00 mm

11:15

5.0 C

1005.0 hpa

83 %

25.7 km/h aus 113

40.2 km/h aus WNW

2.4 C

0.3 C

0.4 C

4.9 C

0 W/m

0.00 mm

11:20

5.2 C

1005.0 hpa

83 %

22.5 km/h aus 110

35.4 km/h aus W

2.5 C

0.8 C

0.9 C

5.1 C

0 W/m

0.00 mm

11:25

5.2 C

1005.0 hpa

83 %

22.5 km/h aus 109

38.6 km/h aus WSW

2.6 C

0.8 C

0.9 C

5.1 C

0 W/m

0.00 mm

11:30

5.2 C

1005.1 hpa

83 %

25.7 km/h aus 109

40.2 km/h aus WNW

2.6 C

0.5 C

0.6 C

5.1 C

0 W/m

0.00 mm

11:35

5.2 C

1005.1 hpa

84 %

22.5 km/h aus 110

37.0 km/h aus W

2.7 C

0.8 C

0.9 C

5.1 C

0 W/m

0.00 mm

11:40

5.2 C

1005.1 hpa

84 %

24.1 km/h aus 112

40.2 km/h aus W

2.7 C

0.6 C

0.7 C

5.1 C

0 W/m

0.20 mm

11:45

4.9 C

1005.3 hpa

85 %

19.3 km/h aus 113

41.8 km/h aus W

2.6 C

0.9 C

1.0 C

4.8 C

0 W/m

0.00 mm

11:50

4.7 C

1005.3 hpa

86 %

24.1 km/h aus 111

40.2 km/h aus W

2.6 C

0.1 C

0.2 C

4.6 C

0 W/m

0.00 mm

11:55

4.7 C

1005.3 hpa

87 %

25.7 km/h aus 109

46.7 km/h aus W

2.7 C

-0.1 C

0.1 C

4.6 C

0 W/m

0.00 mm

12:00

4.8 C

1005.6 hpa

87 %

24.1 km/h aus 113

38.6 km/h aus WNW

2.9 C

0.2 C

0.3 C

4.7 C

0 W/m

0.00 mm

12:05

4.9 C

1005.6 hpa

86 %

25.7 km/h aus 110

41.8 km/h aus WNW

2.7 C

0.2 C

0.3 C

4.8 C

0 W/m

0.00 mm

12:10

4.8 C

1005.6 hpa

87 %

22.5 km/h aus 114

46.7 km/h aus WSW

2.9 C

0.4 C

0.6 C

4.7 C

0 W/m

0.00 mm

12:15

4.8 C

1005.8 hpa

87 %

25.7 km/h aus 110

45.1 km/h aus W

2.9 C

0.1 C

0.2 C

4.7 C

0 W/m

0.00 mm

12:20

4.7 C

1005.8 hpa

86 %

27.4 km/h aus 106

40.2 km/h aus WNW

2.6 C

-0.2 C

-0.1 C

4.6 C

0 W/m

0.40 mm

12:25

4.4 C

1005.8 hpa

87 %

22.5 km/h aus 113

37.0 km/h aus W

2.5 C

0.0 C

0.1 C

4.3 C

0 W/m

0.00 mm

12:30

4.4 C

1005.7 hpa

89 %

20.9 km/h aus 113

33.8 km/h aus WNW

2.7 C

0.2 C

0.2 C

4.3 C

0 W/m

0.00 mm

12:35

4.5 C

1005.7 hpa

90 %

17.7 km/h aus 109

35.4 km/h aus WNW

3.0 C

0.7 C

0.7 C

4.4 C

0 W/m

0.00 mm

12:40

4.7 C

1005.7 hpa

89 %

22.5 km/h aus 112

33.8 km/h aus W

3.1 C

0.4 C

0.4 C

4.7 C

0 W/m

0.00 mm

12:45

4.9 C

1005.8 hpa

89 %

19.3 km/h aus 113

38.6 km/h aus WNW

3.3 C

1.0 C

1.1 C

4.9 C

0 W/m

0.00 mm

12:50

5.1 C

1005.8 hpa

88 %

22.5 km/h aus 111

38.6 km/h aus WNW

3.2 C

0.7 C

0.8 C

5.0 C

0 W/m

0.00 mm

12:55

5.0 C

1005.8 hpa

86 %

22.5 km/h aus 113

35.4 km/h aus WNW

2.9 C

0.6 C

0.7 C

4.9 C

0 W/m

0.00 mm

13:00

4.9 C

1006.1 hpa

87 %

22.5 km/h aus 112

35.4 km/h aus W

3.0 C

0.6 C

0.7 C

4.8 C

0 W/m

0.00 mm

13:05

4.8 C

1006.1 hpa

87 %

17.7 km/h aus 112

32.2 km/h aus WNW

2.9 C

1.0 C

1.1 C

4.7 C

0 W/m

0.00 mm

13:10

4.8 C

1006.1 hpa

87 %

20.9 km/h aus 112

40.2 km/h aus WNW

2.8 C

0.6 C

0.7 C

4.7 C

0 W/m

0.20 mm

13:15

4.7 C

1006.3 hpa

88 %

20.9 km/h aus 111

30.6 km/h aus W

2.9 C

0.6 C

0.6 C

4.7 C

0 W/m

0.00 mm

13:20

4.7 C

1006.3 hpa

88 %

19.3 km/h aus 110

30.6 km/h aus WNW

2.8 C

0.7 C

0.7 C

4.6 C

0 W/m

0.00 mm

13:25

4.7 C

1006.3 hpa

89 %

14.5 km/h aus 112

27.4 km/h aus WNW

3.1 C

1.4 C

1.5 C

4.7 C

0 W/m

0.00 mm

13:30

4.9 C

1006.2 hpa

89 %

16.1 km/h aus 116

27.4 km/h aus W

3.3 C

1.4 C

1.5 C

4.9 C

0 W/m

0.00 mm

13:35

5.2 C

1006.2 hpa

89 %

19.3 km/h aus 110

40.2 km/h aus WNW

3.5 C

1.2 C

1.3 C

5.1 C

0 W/m

0.00 mm

13:40

5.4 C

1006.2 hpa

88 %

17.7 km/h aus 113

33.8 km/h aus W

3.6 C

1.8 C

1.8 C

5.4 C

0 W/m

0.00 mm

13:45

5.6 C

1006.1 hpa

86 %

19.3 km/h aus 113

32.2 km/h aus WSW

3.4 C

1.6 C

1.7 C

5.4 C

0 W/m

0.00 mm

13:50

5.6 C

1006.1 hpa

86 %

19.3 km/h aus 109

33.8 km/h aus W

3.5 C

1.7 C

1.8 C

5.5 C

0 W/m

0.00 mm

13:55

5.8 C

1006.1 hpa

84 %

22.5 km/h aus 111

45.1 km/h aus W

3.3 C

1.6 C

1.7 C

5.7 C

0 W/m

0.00 mm

14:00

6.1 C

1006.1 hpa

85 %

24.1 km/h aus 107

41.8 km/h aus W

3.7 C

1.7 C

1.7 C

6.0 C

0 W/m

0.00 mm

14:05

6.2 C

1006.1 hpa

83 %

20.9 km/h aus 110

37.0 km/h aus W

3.5 C

2.2 C

2.3 C

6.1 C

0 W/m

0.00 mm

14:10

6.2 C

1006.1 hpa

83 %

22.5 km/h aus 103

32.2 km/h aus WNW

3.5 C

1.9 C

2.1 C

6.1 C

0 W/m

0.00 mm

14:15

6.2 C

1006.2 hpa

82 %

24.1 km/h aus 112

37.0 km/h aus W

3.4 C

1.8 C

1.9 C

6.1 C

0 W/m

0.00 mm

14:20

6.2 C

1006.2 hpa

81 %

25.7 km/h aus 112

40.2 km/h aus W

3.2 C

1.6 C

1.7 C

6.1 C

0 W/m

0.00 mm

14:25

6.3 C

1006.2 hpa

81 %

19.3 km/h aus 113

38.6 km/h aus WNW

3.3 C

2.5 C

2.6 C

6.2 C

0 W/m

0.00 mm

14:30

6.3 C

1006.4 hpa

80 %

20.9 km/h aus 111

35.4 km/h aus W

3.1 C

2.2 C

2.3 C

6.1 C

0 W/m

0.00 mm

14:35

6.2 C

1006.4 hpa

79 %

24.1 km/h aus 114

41.8 km/h aus W

2.8 C

1.7 C

1.9 C

6.1 C

0 W/m

0.00 mm

14:40

6.5 C

1006.4 hpa

78 %

22.5 km/h aus 110

35.4 km/h aus WNW

2.9 C

2.3 C

2.4 C

6.3 C

0 W/m

0.00 mm

14:45

6.6 C

1006.7 hpa

77 %

22.5 km/h aus 109

37.0 km/h aus WNW

2.9 C

2.4 C

2.6 C

6.4 C

0 W/m

0.00 mm

14:50

6.7 C

1006.7 hpa

75 %

19.3 km/h aus 111

37.0 km/h aus NW

2.5 C

2.8 C

3.0 C

6.4 C

0 W/m

0.00 mm

14:55

6.7 C

1006.7 hpa

76 %

20.9 km/h aus 109

45.1 km/h aus WNW

2.7 C

2.6 C

2.8 C

6.4 C

0 W/m

0.00 mm

15:00

6.3 C

1007.3 hpa

78 %

19.3 km/h aus 112

33.8 km/h aus WNW

2.8 C

2.4 C

2.6 C

6.2 C

0 W/m

0.00 mm

15:05

5.9 C

1007.3 hpa

81 %

20.9 km/h aus 115

45.1 km/h aus WNW

2.9 C

1.8 C

2.0 C

5.8 C

0 W/m

0.20 mm

15:10

5.7 C

1007.3 hpa

83 %

16.1 km/h aus 110

30.6 km/h aus NW

3.1 C

2.3 C

2.4 C

5.6 C

0 W/m

0.00 mm

15:15

5.9 C

1007.3 hpa

83 %

16.1 km/h aus 112

30.6 km/h aus W

3.2 C

2.5 C

2.6 C

5.8 C

0 W/m

0.00 mm

15:20

6.1 C

1007.3 hpa

81 %

17.7 km/h aus 110

27.4 km/h aus WNW

3.0 C

2.4 C

2.6 C

5.9 C

0 W/m

0.00 mm

15:25

6.2 C

1007.3 hpa

80 %

20.9 km/h aus 113

37.0 km/h aus W

3.0 C

2.1 C

2.2 C

6.0 C

0 W/m

0.00 mm

15:30

6.3 C

1007.3 hpa

81 %

17.7 km/h aus 114

30.6 km/h aus W

3.3 C

2.7 C

2.8 C

6.2 C

0 W/m

0.00 mm

15:35

6.3 C

1007.3 hpa

80 %

19.3 km/h aus 109

33.8 km/h aus NW

3.1 C

2.4 C

2.6 C

6.2 C

0 W/m

0.00 mm

15:40

5.6 C

1007.3 hpa

78 %

25.7 km/h aus 112

53.1 km/h aus N

2.1 C

0.9 C

1.1 C

5.4 C

0 W/m

0.00 mm

15:45

4.3 C

1008.4 hpa

81 %

24.1 km/h aus 113

48.3 km/h aus WNW

1.4 C

-0.4 C

-0.2 C

4.2 C

0 W/m

0.40 mm

15:50

3.8 C

1008.4 hpa

84 %

19.3 km/h aus 112

37.0 km/h aus NW

1.3 C

-0.5 C

-0.4 C

3.7 C

0 W/m

0.40 mm

15:55

3.5 C

1008.4 hpa

86 %

19.3 km/h aus 111

32.2 km/h aus NW

1.4 C

-0.8 C

-0.7 C

3.4 C

0 W/m

0.20 mm

16:00

3.4 C

1008.3 hpa

87 %

17.7 km/h aus 111

30.6 km/h aus WNW

1.5 C

-0.7 C

-0.6 C

3.3 C

0 W/m

0.20 mm

16:05

3.4 C

1008.3 hpa

87 %

16.1 km/h aus 114

27.4 km/h aus NW

1.5 C

-0.4 C

-0.3 C

3.3 C

0 W/m

0.20 mm

16:10

3.5 C

1008.3 hpa

87 %

16.1 km/h aus 109

25.7 km/h aus NNW

1.5 C

-0.4 C

-0.3 C

3.4 C

0 W/m

0.00 mm

16:15

3.6 C

1008.2 hpa

87 %

14.5 km/h aus 111

27.4 km/h aus NW

1.6 C

0.0 C

0.1 C

3.5 C

0 W/m

0.00 mm

16:20

3.7 C

1008.2 hpa

87 %

14.5 km/h aus 106

25.7 km/h aus W

1.7 C

0.1 C

0.2 C

3.6 C

0 W/m

0.00 mm

16:25

3.7 C

1008.2 hpa

88 %

14.5 km/h aus 109

27.4 km/h aus W

1.9 C

0.2 C

0.2 C

3.6 C

0 W/m

0.00 mm

16:30

3.7 C

1008.3 hpa

88 %

14.5 km/h aus 111

22.5 km/h aus WSW

1.9 C

0.2 C

0.3 C

3.7 C

0 W/m

0.20 mm

16:35

3.8 C

1008.3 hpa

89 %

17.7 km/h aus 109

27.4 km/h aus WSW

2.2 C

-0.1 C

-0.1 C

3.8 C

0 W/m

0.00 mm

16:40

4.0 C

1008.3 hpa

88 %

19.3 km/h aus 103

33.8 km/h aus W

2.2 C

-0.2 C

-0.1 C

3.9 C

0 W/m

0.00 mm

16:45

4.2 C

1008.4 hpa

87 %

17.7 km/h aus 109

32.2 km/h aus WNW

2.2 C

0.2 C

0.3 C

4.1 C

0 W/m

0.00 mm

16:50

4.3 C

1008.4 hpa

86 %

20.9 km/h aus 112

38.6 km/h aus W

2.2 C

0.0 C

0.1 C

4.2 C

0 W/m

0.00 mm

16:55

4.5 C

1008.4 hpa

86 %

20.9 km/h aus 102

40.2 km/h aus WNW

2.4 C

0.2 C

0.3 C

4.4 C

0 W/m

0.20 mm

17:00

4.7 C

1008.8 hpa

85 %

24.1 km/h aus 109

46.7 km/h aus W

2.4 C

0.1 C

0.2 C

4.6 C

0 W/m

0.00 mm

17:05

4.7 C

1008.8 hpa

85 %

19.3 km/h aus 114

33.8 km/h aus WNW

2.4 C

0.7 C

0.8 C

4.6 C

0 W/m

0.00 mm

17:10

4.8 C

1008.8 hpa

84 %

20.9 km/h aus 115

33.8 km/h aus W

2.3 C

0.6 C

0.7 C

4.7 C

0 W/m

0.00 mm

17:15

4.8 C

1009.1 hpa

84 %

16.1 km/h aus 113

27.4 km/h aus W

2.3 C

1.2 C

1.3 C

4.7 C

0 W/m

0.00 mm

17:20

4.8 C

1009.1 hpa

84 %

17.7 km/h aus 112

32.2 km/h aus W

2.3 C

0.9 C

1.1 C

4.7 C

0 W/m

0.00 mm

17:25

4.8 C

1009.1 hpa

83 %

17.7 km/h aus 111

35.4 km/h aus NW

2.2 C

1.0 C

1.1 C

4.7 C

0 W/m

0.00 mm

17:30

4.9 C

1009.3 hpa

83 %

19.3 km/h aus 106

32.2 km/h aus W

2.2 C

0.9 C

1.0 C

4.8 C

0 W/m

0.00 mm

17:35

4.9 C

1009.3 hpa

82 %

17.7 km/h aus 110

33.8 km/h aus WNW

2.1 C

1.1 C

1.3 C

4.8 C

0 W/m

0.00 mm

17:40

5.0 C

1009.3 hpa

81 %

19.3 km/h aus 108

35.4 km/h aus NW

2.0 C

0.9 C

1.1 C

4.8 C

0 W/m

0.00 mm

17:45

5.1 C

1009.9 hpa

81 %

29.0 km/h aus 114

49.9 km/h aus WNW

2.1 C

0.0 C

0.2 C

4.9 C

0 W/m

0.20 mm

17:50

5.0 C

1009.9 hpa

81 %

24.1 km/h aus 111

41.8 km/h aus NW

2.0 C

0.4 C

0.6 C

4.8 C

0 W/m

0.20 mm

17:55

4.7 C

1009.9 hpa

82 %

25.7 km/h aus 112

49.9 km/h aus NW

1.9 C

-0.2 C

0.0 C

4.5 C

0 W/m

0.00 mm

18:00

4.4 C

1009.8 hpa

82 %

24.1 km/h aus 113

37.0 km/h aus WNW

1.6 C

-0.3 C

-0.1 C

4.3 C

0 W/m

0.00 mm

18:05

4.2 C

1009.8 hpa

84 %

20.9 km/h aus 115

38.6 km/h aus NNW

1.8 C

-0.1 C

0.0 C

4.1 C

0 W/m

0.20 mm

18:10

4.1 C

1009.8 hpa

85 %

17.7 km/h aus 108

29.0 km/h aus NW

1.8 C

0.1 C

0.2 C

3.9 C

0 W/m

0.00 mm

18:15

4.0 C

1010.1 hpa

86 %

16.1 km/h aus 109

27.4 km/h aus W

1.9 C

0.3 C

0.4 C

3.9 C

0 W/m

0.00 mm

18:20

3.9 C

1010.1 hpa

87 %

14.5 km/h aus 107

20.9 km/h aus WNW

2.0 C

0.4 C

0.6 C

3.8 C

0 W/m

0.00 mm

18:25

4.0 C

1010.1 hpa

87 %

17.7 km/h aus 113

32.2 km/h aus WNW

2.0 C

0.0 C

0.1 C

3.9 C

0 W/m

0.00 mm

18:30

4.1 C

1010.1 hpa

87 %

19.3 km/h aus 109

33.8 km/h aus WNW

2.1 C

-0.1 C

0.1 C

4.0 C

0 W/m

0.00 mm

18:35

4.2 C

1010.1 hpa

87 %

22.5 km/h aus 112

32.2 km/h aus NW

2.2 C

-0.3 C

-0.2 C

4.1 C

0 W/m

0.00 mm

18:40

4.3 C

1010.1 hpa

87 %

19.3 km/h aus 112

33.8 km/h aus W

2.4 C

0.2 C

0.3 C

4.2 C

0 W/m

0.00 mm

18:45

4.4 C

1010.4 hpa

86 %

19.3 km/h aus 110

33.8 km/h aus NW

2.3 C

0.3 C

0.4 C

4.3 C

0 W/m

0.00 mm

18:50

4.6 C

1010.4 hpa

84 %

20.9 km/h aus 115

33.8 km/h aus W

2.1 C

0.3 C

0.4 C

4.4 C

0 W/m

0.00 mm

18:55

4.7 C

1010.4 hpa

84 %

20.9 km/h aus 112

35.4 km/h aus WNW

2.2 C

0.5 C

0.6 C

4.6 C

0 W/m

0.00 mm

19:00

4.7 C

1010.8 hpa

83 %

17.7 km/h aus 111

32.2 km/h aus W

2.1 C

0.9 C

1.0 C

4.6 C

0 W/m

0.00 mm

19:05

4.7 C

1010.8 hpa

83 %

19.3 km/h aus 112

33.8 km/h aus W

2.0 C

0.6 C

0.7 C

4.6 C

0 W/m

0.00 mm

19:10

4.6 C

1010.8 hpa

84 %

17.7 km/h aus 111

27.4 km/h aus WNW

2.1 C

0.8 C

0.9 C

4.5 C

0 W/m

0.00 mm

19:15

4.6 C

1011.0 hpa

84 %

16.1 km/h aus 114

25.7 km/h aus WNW

2.1 C

1.0 C

1.1 C

4.5 C

0 W/m

0.00 mm

19:20

4.6 C

1011.0 hpa

85 %

14.5 km/h aus 111

27.4 km/h aus W

2.3 C

1.3 C

1.4 C

4.5 C

0 W/m

0.00 mm

19:25

4.6 C

1011.0 hpa

84 %

17.7 km/h aus 106

35.4 km/h aus WNW

2.1 C

0.7 C

0.8 C

4.4 C

0 W/m

0.00 mm

19:30

4.6 C

1011.2 hpa

85 %

19.3 km/h aus 113

33.8 km/h aus W

2.3 C

0.4 C

0.6 C

4.4 C

0 W/m

0.00 mm

19:35

4.6 C

1011.2 hpa

85 %

17.7 km/h aus 109

35.4 km/h aus W

2.3 C

0.8 C

0.9 C

4.5 C

0 W/m

0.00 mm

19:40

4.6 C

1011.2 hpa

85 %

17.7 km/h aus 108

30.6 km/h aus WNW

2.3 C

0.8 C

0.9 C

4.5 C

0 W/m

0.00 mm

19:45

4.6 C

1011.4 hpa

86 %

17.7 km/h aus 108

30.6 km/h aus W

2.4 C

0.7 C

0.8 C

4.4 C

0 W/m

0.00 mm

19:50

4.5 C

1011.4 hpa

86 %

16.1 km/h aus 112

29.0 km/h aus WNW

2.4 C

0.8 C

0.9 C

4.4 C

0 W/m

0.20 mm

19:55

4.4 C

1011.4 hpa

86 %

17.7 km/h aus 109

30.6 km/h aus NW

2.3 C

0.5 C

0.6 C

4.3 C

0 W/m

0.20 mm

20:00

4.3 C

1011.4 hpa

87 %

12.9 km/h aus 110

24.1 km/h aus WNW

2.4 C

1.2 C

1.3 C

4.2 C

0 W/m

0.20 mm

20:05

4.3 C

1011.4 hpa

87 %

9.7 km/h aus 110

19.3 km/h aus NW

2.3 C

1.8 C

1.9 C

4.2 C

0 W/m

0.40 mm

20:10

4.2 C

1011.4 hpa

88 %

11.3 km/h aus 112

25.7 km/h aus NW

2.4 C

1.3 C

1.4 C

4.1 C

0 W/m

0.00 mm

20:15

4.1 C

1011.5 hpa

88 %

9.7 km/h aus 114

16.1 km/h aus WNW

2.3 C

1.6 C

1.7 C

4.1 C

0 W/m

0.00 mm

20:20

4.1 C

1011.5 hpa

89 %

14.5 km/h aus 112

24.1 km/h aus WNW

2.4 C

0.6 C

0.7 C

4.0 C

0 W/m

0.00 mm

20:25

4.1 C

1011.5 hpa

89 %

12.9 km/h aus 111

24.1 km/h aus WNW

2.4 C

0.9 C

0.9 C

4.0 C

0 W/m

0.00 mm

20:30

4.1 C

1011.4 hpa

89 %

16.1 km/h aus 112

25.7 km/h aus WNW

2.5 C

0.4 C

0.5 C

4.1 C

0 W/m

0.00 mm

20:35

4.1 C

1011.4 hpa

88 %

16.1 km/h aus 111

30.6 km/h aus WNW

2.3 C

0.4 C

0.5 C

4.1 C

0 W/m

0.00 mm

20:40

4.2 C

1011.4 hpa

87 %

14.5 km/h aus 113

32.2 km/h aus NW

2.2 C

0.7 C

0.8 C

4.1 C

0 W/m

0.00 mm

20:45

4.2 C

1011.4 hpa

87 %

12.9 km/h aus 115

24.1 km/h aus W

2.2 C

1.0 C

1.1 C

4.1 C

0 W/m

0.00 mm

20:50

4.2 C

1011.4 hpa

87 %

14.5 km/h aus 111

24.1 km/h aus WNW

2.2 C

0.7 C

0.8 C

4.1 C

0 W/m

0.00 mm

20:55

4.2 C

1011.4 hpa

87 %

12.9 km/h aus 113

30.6 km/h aus W

2.2 C

1.0 C

1.1 C

4.1 C

0 W/m

0.00 mm

21:00

4.2 C

1011.4 hpa

87 %

19.3 km/h aus 116

33.8 km/h aus WNW

2.2 C

0.1 C

0.2 C

4.1 C

0 W/m

0.00 mm

21:05

4.3 C

1011.4 hpa

87 %

17.7 km/h aus 112

32.2 km/h aus WNW

2.3 C

0.4 C

0.5 C

4.2 C

0 W/m

0.00 mm

21:10

4.4 C

1011.4 hpa

87 %

17.7 km/h aus 113

32.2 km/h aus WNW

2.4 C

0.5 C

0.6 C

4.3 C

0 W/m

0.00 mm

21:15

4.5 C

1011.5 hpa

86 %

19.3 km/h aus 112

33.8 km/h aus WNW

2.4 C

0.4 C

0.5 C

4.4 C

0 W/m

0.00 mm

21:20

4.5 C

1011.5 hpa

86 %

19.3 km/h aus 114

30.6 km/h aus WNW

2.4 C

0.4 C

0.5 C

4.4 C

0 W/m

0.00 mm

21:25

4.5 C

1011.5 hpa

86 %

19.3 km/h aus 112

37.0 km/h aus W

2.4 C

0.4 C

0.5 C

4.4 C

0 W/m

0.00 mm

21:30

4.5 C

1011.6 hpa

86 %

24.1 km/h aus 111

43.5 km/h aus WSW

2.4 C

-0.2 C

-0.1 C

4.4 C

0 W/m

0.00 mm

21:35

4.5 C

1011.6 hpa

86 %

17.7 km/h aus 115

29.0 km/h aus WNW

2.4 C

0.6 C

0.7 C

4.4 C

0 W/m

0.00 mm

21:40

4.5 C

1011.6 hpa

87 %

19.3 km/h aus 108

33.8 km/h aus W

2.5 C

0.4 C

0.5 C

4.4 C

0 W/m

0.20 mm

21:45

4.4 C

1011.9 hpa

87 %

16.1 km/h aus 110

29.0 km/h aus W

2.5 C

0.8 C

0.9 C

4.3 C

0 W/m

0.20 mm

21:50

4.4 C

1011.9 hpa

88 %

12.9 km/h aus 111

22.5 km/h aus W

2.6 C

1.3 C

1.4 C

4.3 C

0 W/m

0.00 mm

21:55

4.3 C

1011.9 hpa

88 %

16.1 km/h aus 109

25.7 km/h aus W

2.5 C

0.7 C

0.8 C

4.3 C

0 W/m

0.00 mm

22:00

4.3 C

1011.9 hpa

88 %

16.1 km/h aus 112

27.4 km/h aus WNW

2.5 C

0.7 C

0.8 C

4.3 C

0 W/m

0.00 mm

22:05

4.3 C

1011.9 hpa

88 %

14.5 km/h aus 113

24.1 km/h aus WNW

2.5 C

0.9 C

1.0 C

4.3 C

0 W/m

0.00 mm

22:10

4.3 C

1011.9 hpa

88 %

14.5 km/h aus 116

27.4 km/h aus W

2.5 C

0.9 C

1.0 C

4.3 C

0 W/m

0.00 mm

22:15

4.4 C

1011.7 hpa

88 %

16.1 km/h aus 111

30.6 km/h aus WSW

2.6 C

0.8 C

0.8 C

4.3 C

0 W/m

0.00 mm

22:20

4.4 C

1011.7 hpa

87 %

20.9 km/h aus 110

32.2 km/h aus W

2.4 C

0.1 C

0.2 C

4.3 C

0 W/m

0.00 mm

22:25

4.4 C

1011.7 hpa

87 %

19.3 km/h aus 112

33.8 km/h aus WNW

2.5 C

0.3 C

0.4 C

4.3 C

0 W/m

0.00 mm

22:30

4.4 C

1011.7 hpa

87 %

17.7 km/h aus 110

32.2 km/h aus W

2.5 C

0.6 C

0.7 C

4.3 C

0 W/m

0.00 mm

22:35

4.4 C

1011.7 hpa

87 %

17.7 km/h aus 114

25.7 km/h aus W

2.5 C

0.6 C

0.7 C

4.3 C

0 W/m

0.00 mm

22:40

4.5 C

1011.7 hpa

86 %

17.7 km/h aus 105

27.4 km/h aus NW

2.4 C

0.6 C

0.7 C

4.4 C

0 W/m

0.00 mm

22:45

4.5 C

1011.8 hpa

86 %

19.3 km/h aus 111

30.6 km/h aus W

2.4 C

0.4 C

0.5 C

4.4 C

0 W/m

0.00 mm

22:50

4.5 C

1011.8 hpa

85 %

20.9 km/h aus 114

32.2 km/h aus NW

2.2 C

0.2 C

0.3 C

4.4 C

0 W/m

0.00 mm

22:55

4.5 C

1011.8 hpa

85 %

19.3 km/h aus 111

37.0 km/h aus W

2.2 C

0.4 C

0.5 C

4.4 C

0 W/m

0.00 mm

23:00

4.5 C

1011.5 hpa

85 %

17.7 km/h aus 105

35.4 km/h aus WNW

2.2 C

0.6 C

0.7 C

4.4 C

0 W/m

0.00 mm

23:05

4.6 C

1011.5 hpa

85 %

20.9 km/h aus 112

35.4 km/h aus WNW

2.3 C

0.3 C

0.4 C

4.4 C

0 W/m

0.00 mm

23:10

4.5 C

1011.5 hpa

84 %

17.7 km/h aus 107

32.2 km/h aus WNW

2.0 C

0.6 C

0.7 C

4.4 C

0 W/m

0.00 mm

23:15

4.5 C

1011.4 hpa

84 %

19.3 km/h aus 113

35.4 km/h aus WSW

2.0 C

0.4 C

0.5 C

4.4 C

0 W/m

0.00 mm

23:20

4.5 C

1011.4 hpa

85 %

20.9 km/h aus 114

38.6 km/h aus WNW

2.2 C

0.2 C

0.3 C

4.4 C

0 W/m

0.00 mm

23:25

4.5 C

1011.4 hpa

85 %

17.7 km/h aus 112

33.8 km/h aus WNW

2.2 C

0.6 C

0.7 C

4.4 C

0 W/m

0.00 mm

23:30

4.5 C

1011.6 hpa

85 %

19.3 km/h aus 109

35.4 km/h aus SW

2.2 C

0.4 C

0.5 C

4.4 C

0 W/m

0.00 mm

23:35

4.5 C

1011.6 hpa

85 %

14.5 km/h aus 113

32.2 km/h aus WNW

2.2 C

1.1 C

1.2 C

4.4 C

0 W/m

0.00 mm

23:40

4.5 C

1011.6 hpa

85 %

16.1 km/h aus 113

25.7 km/h aus WNW

2.2 C

0.8 C

0.9 C

4.4 C

0 W/m

0.00 mm

23:45

4.5 C

1011.4 hpa

85 %

14.5 km/h aus 113

22.5 km/h aus WNW

2.2 C

1.1 C

1.2 C

4.4 C

0 W/m

0.00 mm

23:50

4.6 C

1011.4 hpa

84 %

14.5 km/h aus 116

27.4 km/h aus W

2.1 C

1.2 C

1.3 C

4.4 C

0 W/m

0.00 mm

23:55

4.6 C

1011.4 hpa

85 %

17.7 km/h aus 111

30.6 km/h aus W

2.3 C

0.8 C

0.9 C

4.5 C

0 W/m

0.00 mm